Flag for U.S.A. Weather past 2 weeks in Menominee, Michigan, U.S.A.

Now
14 °F

Clear.


Feels Like: 8 °F
Forecast: 17 / 29 °F
Wind: 3 mph from North

Location: Menominee Weather Reporting Station

Current Time: Dec 19, 2014 at 6:01:31 AM

Latest Report: Dec 19, 2014 at 5:35 AM


Visibility: 10 mi

Pressure: 30.27 "Hg

Humidity: 92%

Dew point: 12 °F

Location of MenomineeLocation

Historic Weather in Menominee — Graph

°F

Menominee temperature yesterday

Maximum temperature yesterday: 30 °F (at 12:55 PM)
Minimum temperature yesterday: 18 °F (at 10:55 PM)
Average temperature yesterday: 25 °F

Past Weeks' High & Low Weather Summary

 TemperatureHumidityPressure
High45 °F (Dec 15, 11:35 AM)100% (Dec 12, 1:15 AM)30.69 "Hg (Dec 12, 1:15 AM)
Low5 °F (Dec 4, 6:55 AM)48% (Dec 6, 2:35 PM)29.68 "Hg (Dec 16, 4:15 AM)
Average29 °F82%30.18 "Hg
* Reported Dec 4 4:15 AM — Dec 19 4:55 AM, Menominee, Weather by CustomWeather, © 2014

Note: Actual official high and low records may vary slightly from our data, if they occured in-between our weather recording intervals... More about our weather records

Advertising

Menominee weather history for previous 24 hours

 ConditionsComfort  
Time TempWeatherWind HumidityBarometerVisibility
4:55 AM
Dec 19
16 °FClear.5 mph86%30.27 "Hg10 mi
4:35 AM16 °FClear.3 mph79%30.27 "Hg10 mi
4:15 AM16 °FClear.3 mph86%30.27 "Hg10 mi
3:55 AM16 °FClear.5 mph86%30.27 "Hg10 mi
3:35 AM16 °FClear.3 mph86%30.27 "Hg10 mi
3:15 AM16 °FClear.5 mph86%30.27 "Hg10 mi
2:55 AM16 °FClear.No wind86%30.27 "Hg10 mi
2:35 AM16 °FClear.3 mph93%30.27 "Hg10 mi
2:15 AM16 °FClear.5 mph86%30.27 "Hg10 mi
1:55 AM16 °FClear.3 mph86%30.27 "Hg10 mi
1:35 AM18 °FClear.6 mph79%30.26 "Hg10 mi
1:15 AM18 °FClear.7 mph79%30.25 "Hg10 mi
12:55 AM18 °FClear.7 mph79%30.25 "Hg10 mi
12:35 AM18 °FClear.6 mph86%30.25 "Hg10 mi
12:15 AM18 °FClear.6 mph93%30.25 "Hg10 mi
11:55 PM
Dec 18
18 °FClear.6 mph93%30.26 "Hg10 mi
11:35 PM18 °FClear.7 mph93%30.26 "Hg10 mi
11:15 PM18 °FClear.6 mph86%30.26 "Hg10 mi
10:55 PM18 °FClear.3 mph86%30.26 "Hg10 mi
10:35 PM19 °FClear.6 mph86%30.26 "Hg10 mi
10:15 PM19 °FClear.6 mph86%30.26 "Hg10 mi
9:35 PM19 °FClear.5 mph79%30.26 "Hg10 mi
9:15 PM21 °FClear.5 mph80%30.25 "Hg10 mi
8:55 PM21 °FClear.5 mph80%30.25 "Hg10 mi
8:35 PM21 °FClear.5 mph74%30.25 "Hg10 mi
8:15 PM23 °FClear.5 mph74%30.25 "Hg10 mi
7:55 PM21 °FClear.5 mph74%30.25 "Hg10 mi
7:35 PM19 °FClear.5 mph79%30.25 "Hg10 mi
7:15 PM19 °FClear.3 mph79%30.25 "Hg10 mi
6:55 PM19 °FClear.No wind86%30.25 "Hg10 mi
6:35 PM21 °FClear.3 mph80%30.25 "Hg10 mi
6:15 PM21 °FClear.3 mph74%30.25 "Hg10 mi
5:55 PM25 °FClear.No wind69%30.24 "Hg10 mi
5:35 PM25 °FClear.No wind69%30.24 "Hg10 mi
5:15 PM27 °FClear.No wind64%30.24 "Hg10 mi
4:55 PM27 °FClear.3 mph69%30.24 "Hg10 mi
4:35 PM27 °FClear.5 mph64%30.24 "Hg10 mi
4:15 PM28 °FClear.5 mph51%30.24 "Hg10 mi
3:55 PM28 °FClear.5 mph51%30.23 "Hg10 mi
3:35 PM28 °FClear.3 mph51%30.23 "Hg10 mi
3:15 PM28 °FClear.6 mph51%30.23 "Hg10 mi
2:55 PM28 °FSunny.7 mph51%30.23 "Hg10 mi
2:35 PM28 °FSunny.3 mph64%30.23 "Hg10 mi
2:15 PM28 °FSunny.6 mph64%30.23 "Hg10 mi
1:55 PM28 °FSunny.7 mph64%30.23 "Hg10 mi
1:35 PM28 °FSunny.7 mph69%30.23 "Hg10 mi
1:15 PM30 °FScattered clouds.6 mph59%30.23 "Hg10 mi
12:55 PM30 °FPassing clouds.No wind59%30.24 "Hg10 mi
12:35 PM28 °FSunny.3 mph64%30.24 "Hg10 mi
11:55 AM28 °FSunny.5 mph59%30.25 "Hg10 mi
11:35 AM28 °FSunny.5 mph64%30.26 "Hg10 mi
11:15 AM27 °FScattered clouds.5 mph69%30.27 "Hg10 mi
10:55 AM25 °FOvercast.5 mph74%30.27 "Hg10 mi
10:35 AM27 °FOvercast.8 mph69%30.28 "Hg10 mi
10:15 AM25 °FOvercast.7 mph74%30.29 "Hg10 mi
9:55 AM25 °FOvercast.9 mph80%30.29 "Hg10 mi
9:35 AM25 °FPartly sunny.10 mph74%30.28 "Hg10 mi
9:15 AM25 °FPartly sunny.9 mph74%30.27 "Hg10 mi
8:55 AM25 °FPassing clouds.8 mph74%30.27 "Hg10 mi
8:35 AM25 °FPassing clouds.8 mph74%30.27 "Hg10 mi
8:15 AM25 °FScattered clouds.12 mph74%30.27 "Hg10 mi
7:55 AM25 °FOvercast.10 mph80%30.27 "Hg10 mi
7:35 AM25 °FOvercast.8 mph80%30.27 "Hg10 mi
7:15 AM27 °FOvercast.6 mph74%30.27 "Hg10 mi
6:55 AM27 °FOvercast.9 mph74%30.26 "Hg10 mi
6:35 AM27 °FOvercast.6 mph74%30.26 "Hg10 mi
6:15 AM27 °FOvercast.7 mph74%30.26 "Hg10 mi
Weather by CustomWeather, © 2014

See weather overviewHow to use our weather pages